Regional Weather Roundup
Issued by NWS

Home | Current Version | Previous Version | Graphics & Text | Print | Product List | Glossary On
Versions: 1 2 3 4 5 6 7 8 9 10 11 12 13 14 15 16 17 18 19 20 21 22 23 24 25 26 27
000
ASUS45 KTFX 201410
RWRMT
MONTANA REGIONAL WEATHER ROUNDUP
NATIONAL WEATHER SERVICE GREAT FALLS MT
700 AM MST MON NOV 20 2017

NOTE: "FAIR" INDICATES FEW OR NO CLOUDS BELOW 12000 FEET WITH NO
SIGNIFICANT WEATHER AND/OR OBSTRUCTIONS TO VISIBILITY.

MTZ001>007-043-201500-
WEST OF THE DIVIDE

CITY           SKY/WX    TMP DP  RH WIND       PRES   REMARKS
KALISPELL      CLOUDY    41  32  70 S10       29.66S
MISSOULA       LGT RAIN  34  33  96 CALM      29.76S
BUTTE          CLOUDY    41  21  44 VRB3      29.78R
MULLAN PASS    SNOW      28  26  92 VRB6      29.66F VSB 1/2 WCI  22
ANACONDA         N/A     39  25  56 SW18G24   29.74S WCI  30
DEER LODGE       N/A     41  28  60 S8        29.73S
EUREKA           N/A     41  30  65 MISG      29.64S
HAMILTON         N/A     43  30  61 S9        29.75F
LIBBY            N/A     36  36 100 CALM      29.65S
RONAN            N/A     42  34  73 SE8       29.75F
$$

MTZ008-052>055-201500-
SOUTHWEST MONTANA

CITY           SKY/WX    TMP DP  RH WIND       PRES   REMARKS
BOZEMAN        MOCLDY    46  20  35 SW18G24   29.73S
DILLON         MOCLDY    36  17  46 SW17      29.79F WCI  26
W YELLOWSTONE  CLOUDY    27  16  63 MISG      29.92S
ENNIS          CLOUDY    37  14  38 S22G30    29.86S WCI  27
$$

MTZ009-010-012-014-046-048-049-054-201500-
EAST SLOPES AND CENTRAL MONTANA

CITY           SKY/WX    TMP DP  RH WIND       PRES   REMARKS
CUT BANK       FAIR      37  29  72 W28G37    29.52R WCI  25
GREAT FALLS    FAIR      45  24  43 SW20G35   29.58R
MALMSTROM AFB  MOCLDY    47  25  42 SW29G38   29.57R
HELENA         FAIR      40  27  59 SE3       29.67R
BOWMANS CRNR   FAIR      39  27  63 SW31G38   29.53R WCI  26
CHOTEAU          N/A     41  27  56 SW16G23   29.56R
FAIRFIELD      FAIR      41  26  54 SW22G32   29.57R
POWER          FAIR      41  25  52 W26G32    29.56R
RAYNESFORD     MOCLDY    50  21  31 W29G40    29.54R
ULM            MOCLDY    47  26  44 SW24G32   29.58R
$$

MTZ011-013-016-021-045-047-050-051-201500-
NORTH CENTRAL MONTANA

CITY           SKY/WX    TMP DP  RH WIND       PRES   REMARKS
HAVRE          FAIR      39  24  55 SW10      29.51R
LEWISTOWN      FAIR      47  17  30 SW23      29.55R
N BAR RANCH    FAIR      48  16  27 W31G48    29.48S
CHINOOK          N/A     39  21  48 W13       29.48R WCI  32
DENTON         MOCLDY    50  20  30 W24       29.49R
GEYSER         CLOUDY    49  19  30 W32G43    29.51R
GRASS RANGE    MOCLDY    50  15  24 W30G44    29.45R
STANFORD       MOCLDY    49  19  30 W44G55    29.49R
WINIFRED       CLOUDY    46  13  26 NW10      29.52R
$$

MTZ017>020-022>027-061-062-201500-
NORTHEAST MONTANA

CITY           SKY/WX    TMP DP  RH WIND       PRES   REMARKS
GLASGOW        FAIR      44  17  33 NW15      29.43R
GLENDIVE       FAIR      42  18  37 SW9       29.45F
JORDAN           N/A     41  21  44 W10       29.47R
SIDNEY         MOCLDY    33  21  61 S3        29.41R
WOLF POINT     FAIR      33  21  61 SW6       29.40R WCI  28
MALTA          PTCLDY    37  19  48 SW10      29.45R WCI  30
PLENTYWOOD       N/A     45  21  39 W17G23    29.34S
POPLAR           N/A     36  19  51 CALM      29.41R
$$

MTZ028>42-056>058-201500-
SOUTHCENTRAL AND SOUTHEAST MONTANA

CITY           SKY/WX    TMP DP  RH WIND       PRES   REMARKS
BAKER          FAIR      33  19  56 W8        29.49S WCI  26
BILLINGS       MOCLDY    43  18  36 SW15      29.58R
LIVINGSTON     MOCLDY    43  18  36 SW37G63   29.68R
MILES CITY     MOCLDY    38  21  50 CALM      29.51R
BIG TIMBER     CLEAR     45  18  33 W55G67    29.56F
FORSYTH          N/A     46  16  29 CALM      29.53R
HARLOWTON      MOCLDY    44  22  40 W29G37    29.52F
LAUREL           N/A     45  16  31 SW16      29.60R
$$

REGIONAL REPORTS...DAKOTAS

CITY           SKY/WX    TMP DP  RH WIND       PRES   REMARKS
WILLISTON      FAIR      34  21  59 SW7       29.39R WCI  28
MINOT          FAIR      39  22  50 SW13      29.34F WCI  31
DICKINSON      FAIR      38  18  44 SW15      29.43S WCI  29
CROSBY         MOCLDY    32  23  69 SW13      29.33S WCI  22
TIOGA          FAIR      36  19  51 W13       29.36S WCI  27
BISMARCK       FAIR      29  21  72 S6        29.44F WCI  23
GRAND FORKS    CLOUDY    31  26  82 S15       29.39F WCI  20
FARGO          FAIR      31  24  75 S15       29.44F WCI  20
BUFFALO SD       N/A     41  15  35 W15       29.45F
RAPID CITY     FAIR      35  15  44 CALM      29.57F
$$

REGIONAL REPORTS...WYOMING/IDAHO/WASHINGTON

CITY           SKY/WX    TMP DP  RH WIND       PRES   REMARKS
GILLETTE       FAIR      43  10  26 SW23      29.61S
SHERIDAN       FAIR      52  14  22 W10       29.58F
BUFFALO WY     FAIR      49  14  24 SW12G25   29.61F
CODY           FAIR      47  14  26 W18G37    29.69R
YELLOWSTONE LA   N/A     19  17  92 VRB3      29.97R
IDAHO FALLS    MOCLDY    29  25  85 N6        29.99R WCI  23
SALMON         CLOUDY    34  24  67 E5        29.86F
BOISE          CLOUDY    47  31  53 SE7       29.93R
SPOKANE        FLURRIES  41  40  96 S13       29.66F
$$

REGIONAL REPORTS...ALBERTA

CITY           SKY/WX    TMP DP  RH WIND       PRES   REMARKS
EDMONTON       PTCLDY     3  -6  66 NW16G22   29.68R WCI -16
CALGARY        MOCLDY    25  19  80 W5        29.58R
LETHBRIDGE     FLURRIES  30  23  74 N16G23    29.59R WCI  19
MEDICINE HAT   MOCLDY    30  25  80 N13G30    29.58R WCI  20
$$

REGIONAL REPORTS...SASKATCHEWAN

CITY           SKY/WX    TMP DP  RH WIND       PRES   REMARKS
SWIFT CURRENT  LGT SNOW  30  27  86 NW28G38   29.37  WCI  16
REGINA         MOCLDY    36  28  75 W21       29.25R WCI  24
SASKATOON      LGT SNOW  19  16  86 NW16      29.38R WCI   5
$$




USA.gov is the U.S. government's official web portal to all federal, state and local government web resources and services.